Simultaneous Nadir Overpasses (SNOs) Predictions

Prediction of SNOs between AURA and NPP Satellite Orbit:

Table of predicted SNOs for the next 14.0 days since TLE Epoch: 4/24/2021
Index Date (AURA) Time (AURA) Lat,Lon (AURA) SZA (AURA ) Date (NPP) Time (NPP) Lat,Lon (NPP) SZA (NPP ) Distance(km) Time Diff (sec)
1 04/25/2021 19:57:56 -79.43, -43.23 100.83 04/25/2021 19:57:44 -79.42, -43.37 100.79 3.04 12
2 04/25/2021 20:47:14 79.72, 126.48 78.73 04/25/2021 20:48:19 79.72, 126.53 78.68 1.01 65
3 04/28/2021 11:24:59 79.32, -95.69 78.49 04/28/2021 11:23:55 79.33, -95.64 78.52 1.20 64
4 04/28/2021 12:14:19 -79.60, 73.85 101.94 04/28/2021 12:14:32 -79.61, 73.98 101.97 2.82 13
5 05/01/2021 03:41:24 79.41, 20.80 77.53 05/01/2021 03:40:46 79.42, 20.86 77.55 1.29 38
6 05/01/2021 04:30:44 -79.69,-169.61 102.89 05/01/2021 04:31:23 -79.70,-169.46 102.95 3.05 39
7 05/03/2021 19:57:49 79.50, 137.26 76.62 05/03/2021 19:57:37 79.51, 137.36 76.61 2.11 12
8 05/03/2021 20:47:12 -79.66, -53.92 103.65 05/03/2021 20:48:18 -79.66, -54.04 103.67 2.40 66
9 05/06/2021 11:24:55 -79.29, 84.10 103.84 05/06/2021 11:23:52 -79.29, 84.11 103.79 0.14 63



Historial Predications of SNOs between AURA and NPP
